Lid_Strength_Index
6 5 5 7 9 7 9 9 11 11 9 7 6 6 5 5 5 5 5 4 4 3 3 2 2 2 1 1 1 1 1 1
6 5 5 6 6 9 9 13 14 11 11 13 10 9 6 6 5 5 5 4 4 3 3 2 2 1 1 1 1 1 1 0
6 7 8 7 8 7 8 9 12 13 14 9 9 8 8 6 5 5 5 4 4 3 2 2 2 2 1 1 1 1 1 1
8 6 5 6 7 7 10 12 10 10 14 7 9 8 7 6 5 4 4 4 4 3 3 2 2 2 2 2 1 1 1 1
9 7 6 7 7 6 7 8 11 12 12 7 7 8 6 6 5 5 5 4 4 4 3 3 2 2 2 2 1 1 1 1
11 9 8 8 7 7 7 10 10 9 12 9 9 9 8 7 5 5 5 5 4 4 4 3 3 3 2 2 1 1 1 1
7 7 7 8 8 7 8 8 9 8 10 10 9 8 7 6 5 5 5 5 4 4 3 2 3 3 2 2 1 1 1 1
9 7 7 8 7 7 7 7 7 7 12 8 7 6 7 6 6 6 5 5 4 4 3 3 2 2 2 2 1 1 1 2
12 8 8 10 8 7 7 6 7 11 10 8 8 8 7 7 6 5 5 5 4 4 3 3 2 2 2 2 1 1 2 1
11 10 14 9 7 7 8 6 5 8 8 8 8 7 6 5 5 5 5 4 4 3 3 2 2 2 2 2 2 2 1 2
12 12 10 9 8 9 8 7 5 6 8 7 7 6 6 4 4 4 4 4 3 3 3 2 2 2 2 2 2 2 2 2
11 13 14 9 6 5 6 10 5 6 7 8 7 10 9 4 4 4 3 3 3 3 3 3 3 2 2 3 2 2 3 2
11 12 10 7 6 5 11 11 6 6 6 7 8 7 5 4 4 3 3 3 3 4 4 5 5 5 7 7 7 7 7 6
10 12 13 5 6 8 8 5 6 6 6 7 6 5 5 4 4 4 4 4 4 5 6 6 6 7 8 9 8 8 8 8
11 11 7 5 6 5 4 5 6 6 5 5 5 5 4 5 4 4 5 6 6 6 7 7 7 8 9 9 9 9 9 9
9 8 8 6 5 4 4 5 4 4 4 4 5 4 5 5 4 5 6 7 6 7 7 7 7 8 8 8 8 8 9 9
9 9 8 7 5 5 4 4 4 4 4 4 4 4 5 5 5 5 6 6 7 7 6 6 7 7 7 7 7 7 8 9
10 8 8 8 5 4 4 4 4 4 4 3 4 4 4 4 5 6 6 6 6 6 6 6 6 6 5 5 5 6 7 8
7 5 6 5 5 5 4 4 3 4 3 4 3 3 4 5 5 6 6 6 6 6 5 5 5 5 4 4 4 6 6 6